Skip Page Navigation
NASA JPL Caltech
NASA Logo - Jet Propulsion Laboratory + View the NASA Portal
+ Near-Earth Object (NEO) Program
Search JPL
JPL Home Earth Solar System Stars & Galaxies Technology
JPL Solar System Dynamics
BODIES ORBITS EPHEMERIDES TOOLS PHYSICAL DATA DISCOVERY FAQ SITE MAP
JPL Small-Body Database Browser
Search: [ help ]  
(2004 MD6)
Classification: Aten [NEO, PHA]          SPK-ID: 3184475
Ephemeris | Orbit Diagram | Orbital Elements | Physical Parameters | Close-Approach Data ]

[ hide orbit diagram ]
Orbit Diagram
Note: Make sure you have Java enabled on your browser to see the applet. This applet is provided as a 3D orbit visualization tool. The applet was implemented using 2-body methods, and hence should not be used for determining accurate long-term trajectories (over several years or decades) or planetary encounter circumstances. For accurate long-term ephemerides, please instead use our Horizons system.
Orbit Viewer

Additional Notes: the orbits shown in the applet are color coded. The planets are white lines, and the asteroid/comet is a blue line. The bright white line indicates the portion of the orbit that is above the ecliptic plane, and the darker portion is below the ecliptic plane. Likewise for the asteroid/comet orbit, the light blue indicates the portion above the ecliptic plane, and the dark blue the portion below the ecliptic plane.

Orbit Viewer applet originally written and kindly provided by Osamu Ajiki (AstroArts), and further modified by Ron Baalke (JPL).


Orbital Elements at Epoch 2456400.5 (2013-Apr-18.0) TDB
Reference: JPL 23 (heliocentric ecliptic J2000)
 Element Value Uncertainty (1-sigma)   Units 
e .562869806644022 1.1241e-06  
a .9507282806400402 1.7656e-07 AU
q .4155920371451773 1.1296e-06 AU
i 29.32965212775063 8.804e-05 deg
node 263.8919884039638 7.4662e-05 deg
peri 231.3987216638263 6.6109e-05 deg
M 262.2941342667542 0.00088155 deg
tp 2456492.396967934595
(2013-Jul-18.89696793)
0.00085452 JED
period 338.5969532962966
0.93
9.4323e-05
2.582e-07
d
yr
n 1.063210984314363 2.9618e-07 deg/d
Q 1.485864524134903 2.7595e-07 AU
  Orbit Determination Parameters
   # obs. used (total)      141  
   data-arc span      1178 days (3.23 yr)  
   first obs. used      2004-06-23  
   last obs. used      2007-09-14  
   planetary ephem.      DE405  
   SB-pert. ephem.      SB405-CPV-2  
   condition code      2  
   fit RMS      .76231  
   data source      ORB  
   producer      Otto Matic  
   solution date      2011-Sep-14 19:56:45  

Additional Information
 Earth MOID = .00847313 AU 
 T_jup = 6.089 
[ show covariance matrix ]

Ephemeris | Orbit Diagram | Orbital Elements | Physical Parameters | Close-Approach Data ]

Physical Parameter Table
Parameter Symbol Value Units Sigma Reference Notes
absolute magnitude H 20.404 mag .4555 23 autocmod 2.5a

[ show close-approach data ]
Ephemeris | Orbit Diagram | Orbital Elements | Physical Parameters | Close-Approach Data ]
ABOUT SSD CREDITS/AWARDS PRIVACY/COPYRIGHT GLOSSARY LINKS
FirstGov 2013-May-23 04:34 UT
(server date/time)  
NASA Home Page
Site Manager:   Donald K. Yeomans
Webmaster  Alan B. Chamberlin